| time (UTC) | temp F | wind direction | speed knots | gust knots | rain 1hr in | rain 24hr in | rain mn in | humidity % | barometer mb |
| 20260509141547 | 52 | 0 | 0.0 | 0.0 | 0.00 | 0.00 | 0.00 | 81 | 1027.9 |
| 20260509140058 | 52 | 0 | 0.0 | 0.9 | 0.00 | 0.00 | 0.00 | 81 | 1027.8 |
| 20260509134553 | 52 | 0 | 0.0 | 0.9 | 0.00 | 0.00 | 0.00 | 81 | 1027.9 |
| 20260509133048 | 52 | 0 | 0.0 | 1.7 | 0.00 | 0.00 | 0.00 | 81 | 1028.1 |
| 20260509131556 | 53 | 0 | 0.0 | 0.9 | 0.00 | 0.00 | 0.00 | 81 | 1028.1 |
| 20260509130057 | 53 | 19 | 0.0 | 3.5 | 0.00 | 0.00 | 0.00 | 80 | 1028.2 |
| 20260509124550 | 53 | 0 | 0.0 | 0.0 | 0.00 | 0.00 | 0.00 | 80 | 1028.0 |
| 20260509123048 | 53 | 0 | 0.0 | 0.0 | 0.00 | 0.00 | 0.00 | 79 | 1028.0 |
| 20260509121600 | 53 | 0 | 0.0 | 0.0 | 0.00 | 0.00 | 0.00 | 79 | 1028.0 |
| 20260509120049 | 53 | 0 | 0.0 | 0.0 | 0.00 | 0.00 | 0.00 | 78 | 1028.1 |
| 20260509114549 | 54 | 0 | 0.0 | 0.0 | 0.00 | 0.00 | 0.00 | 78 | 1028.2 |
| 20260509113051 | 55 | 0 | 0.0 | 0.0 | 0.00 | 0.00 | 0.00 | 77 | 1028.1 |
| 20260509111546 | 55 | 0 | 0.0 | 0.0 | 0.00 | 0.00 | 0.00 | 76 | 1028.1 |
| 20260509110046 | 55 | 0 | 0.0 | 0.0 | 0.00 | 0.00 | 0.00 | 74 | 1028.1 |
| 20260509104549 | 55 | 0 | 0.0 | 0.0 | 0.00 | 0.00 | 0.00 | 73 | 1028.2 |
| 20260509103049 | 56 | 0 | 0.0 | 0.0 | 0.00 | 0.00 | 0.00 | 72 | 1027.9 |
| 20260509101551 | 56 | 0 | 0.0 | 0.0 | 0.00 | 0.00 | 0.00 | 71 | 1027.9 |
| 20260509100044 | 57 | 0 | 0.0 | 0.0 | 0.00 | 0.00 | 0.00 | 70 | 1027.8 |
| 20260509094545 | 57 | 0 | 0.0 | 0.0 | 0.00 | 0.00 | 0.00 | 69 | 1027.8 |
| 20260509093046 | 57 | 0 | 0.0 | 0.0 | 0.00 | 0.00 | 0.00 | 69 | 1027.7 |
| 20260509091550 | 58 | 0 | 0.0 | 0.0 | 0.00 | 0.00 | 0.00 | 67 | 1027.7 |
| 20260509084547 | 58 | 0 | 0.0 | 0.0 | 0.00 | 0.00 | 0.00 | 66 | 1027.2 |
| 20260509083053 | 59 | 0 | 0.0 | 0.0 | 0.00 | 0.00 | 0.00 | 65 | 1027.0 |
| 20260509081552 | 59 | 0 | 0.0 | 0.0 | 0.00 | 0.00 | 0.00 | 65 | 1026.7 |
| 20260509080048 | 60 | 0 | 0.0 | 0.0 | 0.00 | 0.00 | 0.00 | 64 | 1026.6 |
| 20260509074550 | 60 | 0 | 0.0 | 0.0 | 0.00 | 0.00 | 0.00 | 63 | 1026.4 |
| 20260509073050 | 60 | 0 | 0.0 | 0.0 | 0.00 | 0.00 | 0.00 | 62 | 1026.2 |
| 20260509071551 | 62 | 0 | 0.0 | 0.9 | 0.00 | 0.00 | 0.00 | 60 | 1026.1 |
| 20260509070051 | 62 | 0 | 0.0 | 2.6 | 0.00 | 0.00 | 0.00 | 59 | 1025.9 |
| 20260509064548 | 63 | 0 | 0.0 | 1.7 | 0.00 | 0.00 | 0.00 | 56 | 1025.8 |
| 20260509063047 | 64 | 0 | 0.0 | 3.5 | 0.00 | 0.00 | 0.00 | 55 | 1025.5 |
| 20260509061551 | 65 | 0 | 0.0 | 1.7 | 0.00 | 0.00 | 0.00 | 54 | 1025.5 |
| 20260509060058 | 66 | 0 | 0.0 | 2.6 | 0.00 | 0.00 | 0.00 | 52 | 1025.3 |
| 20260509054549 | 66 | 0 | 0.0 | 2.6 | 0.00 | 0.00 | 0.00 | 51 | 1025.3 |
| 20260509053112 | 66 | 32 | 0.0 | 6.1 | 0.00 | 0.00 | 0.00 | 50 | 1025.3 |
| 20260509051544 | 67 | 0 | 0.0 | 2.6 | 0.00 | 0.00 | 0.00 | 49 | 1025.2 |
| 20260509050045 | 66 | 0 | 0.0 | 3.5 | 0.00 | 0.00 | 0.00 | 50 | 1025.1 |
| 20260509044547 | 68 | 0 | 0.0 | 4.3 | 0.00 | 0.00 | 0.00 | 46 | 1025.2 |
| 20260509043101 | 68 | 0 | 0.0 | 5.2 | 0.00 | 0.00 | 0.00 | 49 | 1025.1 |
| 20260509041559 | 68 | 0 | 0.0 | 2.6 | 0.00 | 0.00 | 0.00 | 49 | 1025.0 |
| 20260509040056 | 67 | 0 | 0.0 | 3.5 | 0.00 | 0.00 | 0.00 | 50 | 1025.0 |
| 20260509034601 | 67 | 0 | 0.0 | 5.2 | 0.00 | 0.00 | 0.00 | 51 | 1025.0 |
| 20260509033044 | 67 | 0 | 0.0 | 1.7 | 0.00 | 0.00 | 0.00 | 51 | 1025.2 |
| 20260509031602 | 67 | 0 | 0.0 | 5.2 | 0.00 | 0.00 | 0.00 | 53 | 1025.3 |
| 20260509030056 | 66 | 0 | 0.0 | 5.2 | 0.00 | 0.00 | 0.00 | 53 | 1025.5 |
| 20260509024545 | 65 | 26 | 0.0 | 5.2 | 0.00 | 0.00 | 0.00 | 55 | 1025.7 |
| 20260509023051 | 65 | 336 | 0.0 | 8.7 | 0.00 | 0.00 | 0.00 | 57 | 1025.7 |
| 20260509021548 | 65 | 0 | 0.9 | 7.8 | 0.00 | 0.00 | 0.00 | 55 | 1025.9 |
| 20260509020054 | 65 | 67 | 2.6 | 8.7 | 0.00 | 0.00 | 0.00 | 55 | 1026.1 |
| 20260509014551 | 64 | 0 | 4.3 | 8.7 | 0.00 | 0.00 | 0.00 | 54 | 1026.2 |
| 20260509013053 | 65 | 41 | 3.5 | 8.7 | 0.00 | 0.00 | 0.00 | 53 | 1026.1 |
| 20260509011549 | 63 | 36 | 3.5 | 10.4 | 0.00 | 0.00 | 0.00 | 53 | 1026.4 |
| 20260509010055 | 63 | 49 | 3.5 | 11.3 | 0.00 | 0.00 | 0.00 | 55 | 1026.6 |
| 20260509004550 | 62 | 22 | 5.2 | 13.0 | 0.00 | 0.00 | 0.00 | 55 | 1026.6 |
| 20260509003050 | 62 | 18 | 3.5 | 13.0 | 0.00 | 0.00 | 0.00 | 58 | 1026.6 |
| 20260509001544 | 61 | 53 | 5.2 | 13.0 | 0.00 | 0.00 | 0.00 | 61 | 1026.6 |
| 20260509000051 | 61 | 34 | 7.0 | 13.0 | 0.00 | 0.00 | 0.00 | 62 | 1026.6 |
| 20260508234547 | 61 | 20 | 4.3 | 10.4 | 0.00 | 0.00 | 0.00 | 62 | 1026.7 |
| 20260508233045 | 61 | 32 | 4.3 | 10.4 | 0.00 | 0.00 | 0.00 | 61 | 1026.4 |
| 20260508231548 | 60 | 21 | 6.1 | 11.3 | 0.00 | 0.00 | 0.00 | 62 | 1026.4 |
| 20260508230057 | 59 | 28 | 4.3 | 12.2 | 0.00 | 0.00 | 0.00 | 63 | 1026.2 |
| 20260508224547 | 58 | 50 | 5.2 | 12.2 | 0.00 | 0.00 | 0.00 | 65 | 1026.1 |
| 20260508223051 | 57 | 36 | 5.2 | 10.4 | 0.00 | 0.00 | 0.00 | 66 | 1025.9 |
| 20260508221551 | 56 | 24 | 4.3 | 11.3 | 0.00 | 0.00 | 0.00 | 66 | 1025.7 |
| 20260508220050 | 56 | 34 | 3.5 | 9.6 | 0.00 | 0.00 | 0.00 | 63 | 1025.3 |
| 20260508214547 | 55 | 26 | 3.5 | 8.7 | 0.00 | 0.00 | 0.00 | 63 | 1025.2 |
| 20260508213051 | 54 | 36 | 3.5 | 7.8 | 0.00 | 0.00 | 0.00 | 62 | 1025.0 |
| 20260508211553 | 53 | 59 | 2.6 | 6.1 | 0.00 | 0.00 | 0.00 | 62 | 1024.8 |
| 20260508210050 | 51 | 46 | 1.7 | 4.3 | 0.00 | 0.00 | 0.00 | 63 | 1024.7 |
| 20260508204547 | 50 | 56 | 0.0 | 3.5 | 0.00 | 0.00 | 0.00 | 62 | 1024.6 |
| 20260508203045 | 49 | 0 | 0.0 | 2.6 | 0.00 | 0.00 | 0.00 | 62 | 1024.3 |
| 20260508201541 | 49 | 0 | 0.0 | 0.0 | 0.00 | 0.00 | 0.00 | 62 | 1024.0 |
| 20260508200055 | 49 | 0 | 0.0 | 0.0 | 0.00 | 0.00 | 0.00 | 61 | 1023.9 |
| 20260508194546 | 50 | 0 | 0.0 | 0.0 | 0.00 | 0.00 | 0.00 | 61 | 1023.7 |
| 20260508193057 | 49 | 0 | 0.0 | 0.0 | 0.00 | 0.00 | 0.00 | 62 | 1023.6 |
| 20260508191556 | 47 | 0 | 0.0 | 0.0 | 0.00 | 0.00 | 0.00 | 66 | 1023.5 |
| 20260508190052 | 46 | 0 | 0.0 | 0.0 | 0.00 | 0.00 | 0.00 | 69 | 1023.2 |
| 20260508184548 | 46 | 0 | 0.0 | 0.0 | 0.00 | 0.00 | 0.00 | 68 | 1023.2 |
| 20260508183046 | 47 | 0 | 0.0 | 0.9 | 0.00 | 0.00 | 0.00 | 67 | 1023.3 |
| 20260508181552 | 47 | 0 | 0.9 | 3.5 | 0.00 | 0.00 | 0.00 | 68 | 1023.3 |
| 20260508180045 | 47 | 123 | 0.0 | 4.3 | 0.00 | 0.00 | 0.00 | 68 | 1023.3 |
| 20260508174550 | 46 | 146 | 0.0 | 4.3 | 0.00 | 0.00 | 0.00 | 69 | 1023.4 |
| 20260508173054 | 47 | 0 | 0.0 | 3.5 | 0.00 | 0.00 | 0.00 | 68 | 1023.4 |
| 20260508171552 | 47 | 152 | 0.9 | 6.1 | 0.00 | 0.00 | 0.00 | 67 | 1023.5 |
| 20260508170057 | 47 | 126 | 0.0 | 4.3 | 0.00 | 0.00 | 0.00 | 68 | 1023.4 |
| 20260508164549 | 47 | 132 | 1.7 | 7.0 | 0.00 | 0.00 | 0.00 | 67 | 1023.2 |
| 20260508163050 | 47 | 144 | 0.9 | 3.5 | 0.00 | 0.00 | 0.00 | 69 | 1023.4 |
| 20260508161551 | 46 | 138 | 0.0 | 4.3 | 0.00 | 0.00 | 0.00 | 70 | 1023.3 |
| 20260508160054 | 45 | 171 | 1.7 | 6.1 | 0.00 | 0.00 | 0.00 | 71 | 1023.4 |
| 20260508154550 | 44 | 185 | 0.9 | 4.3 | 0.00 | 0.00 | 0.00 | 72 | 1023.6 |
| 20260508153048 | 44 | 202 | 1.7 | 5.2 | 0.00 | 0.00 | 0.00 | 72 | 1023.6 |
| 20260508151546 | 46 | 0 | 2.6 | 7.8 | 0.00 | 0.00 | 0.00 | 70 | 1023.6 |
| 20260508150045 | 46 | 188 | 1.7 | 8.7 | 0.00 | 0.00 | 0.00 | 70 | 1023.6 |
| 20260508144550 | 46 | 170 | 2.6 | 7.8 | 0.00 | 0.00 | 0.00 | 69 | 1023.7 |
| 20260508143104 | 45 | 175 | 3.5 | 8.7 | 0.00 | 0.00 | 0.00 | 70 | 1023.9 |